This is the latest recevied weather packets stored in our database for station/object IR4UCA-3. If no packets are shown the sender has not sent any weather packets the latest 1 day(s).
| Time | Temp. | Humidity | Pressure | Rain* | Wind** | Luminosity | Snow |
|---|---|---|---|---|---|---|---|
| 1778079125 | 19.44° C | 74% | 1007.7 hPa | 0 mm | - | - | - |
| 1778078650 | 19.44° C | 74% | 1007.9 hPa | 0 mm | - | - | - |
| 1778078162 | 19.44° C | 74% | 1008 hPa | 0 mm | - | - | - |
| 1778077685 | 19.44° C | 74% | 1007.9 hPa | 0 mm | - | - | - |
| 1778077330 | 19.44° C | 74% | 1007.9 hPa | 0 mm | - | - | - |
| 1778076960 | 19.44° C | 76% | 1007.8 hPa | 0 mm | - | - | - |
| 1778076726 | 19.44° C | 75% | 1007.8 hPa | 0 mm | - | - | - |
| 1778076481 | 19.44° C | 76% | 1007.9 hPa | 0 mm | - | - | - |
| 1778075639 | 19.44° C | 72% | 1008.4 hPa | 0 mm | - | - | - |
| 1778075271 | 19.44° C | 73% | 1008.4 hPa | 0 mm | - | - | - |
| 1778075030 | 19.44° C | 72% | 1008.3 hPa | 0 mm | - | - | - |
| 1778074668 | 19.44° C | 75% | 1008.4 hPa | 0 mm | - | - | - |
| 1778074306 | 18.89° C | 77% | 1008.5 hPa | 0 mm | - | - | - |
| 1778074188 | 18.89° C | 78% | 1008.5 hPa | 0 mm | - | - | - |
| 1778073945 | 18.33° C | 78% | 1008.7 hPa | 0 mm | - | - | - |
| 1778073703 | 18.33° C | 80% | 1008.7 hPa | 0 mm | - | - | - |
| 1778073460 | 18.33° C | 81% | 1008.6 hPa | 0 mm | - | - | - |
| 1778073218 | 18.33° C | 82% | 1008.6 hPa | 0 mm | - | - | - |
| 1778072977 | 18.33° C | 84% | 1008.7 hPa | 0.25 mm | - | - | - |
| 1778072863 | 18.33° C | 84% | 1008.9 hPa | 0.25 mm | - | - | - |
| 1778072739 | 18.33° C | 84% | 1008.8 hPa | 0.25 mm | - | - | - |
| 1778072613 | 18.33° C | 84% | 1009.1 hPa | 0.25 mm | - | - | - |
| 1778072496 | 18.33° C | 84% | 1009 hPa | 0.25 mm | - | - | - |
| 1778072370 | 18.33° C | 85% | 1009.1 hPa | 0.25 mm | - | - | - |
| 1778072128 | 18.33° C | 85% | 1008.9 hPa | 0.25 mm | - | - | - |
* Rain latest hour (hover to see other rain measurements)
** Current wind speed in m/s (hover to see current wind gust speed)